Time,TemperatureF,DewpointF,PressureIn,WindDirection,WindDirectionDegrees,WindSpeedMPH,WindSpeedGustMPH,Humidity,HourlyPrecipIn,Conditions,Clouds,dailyrainin,SoftwareType,DateUTC
2013-01-02 00:03:00,24.5,16.0,29.96,WNW,295,18.0,18.0,70,0.00,,,0.00,weatherlink.com 1.10,2013-01-02 05:03:00,
2013-01-02 00:18:00,24.4,16.0,29.96,NW,322,13.0,22.0,70,0.00,,,0.00,weatherlink.com 1.10,2013-01-02 05:18:00,
2013-01-02 00:33:00,24.1,16.0,29.96,WNW,288,13.0,18.0,70,0.00,,,0.00,weatherlink.com 1.10,2013-01-02 05:33:00,
2013-01-02 00:48:00,23.8,16.0,29.96,NNW,328,15.0,21.0,71,0.00,,,0.00,weatherlink.com 1.10,2013-01-02 05:48:00,
2013-01-02 01:03:00,23.4,15.0,29.96,NW,304,17.0,20.0,71,0.00,,,0.00,weatherlink.com 1.10,2013-01-02 06:03:00,
2013-01-02 01:18:00,23.0,15.0,29.96,NNW,329,14.0,19.0,71,0.00,,,0.00,weatherlink.com 1.10,2013-01-02 06:18:00,
2013-01-02 01:48:00,22.6,15.0,29.96,WNW,295,14.0,17.0,73,0.00,,,0.00,weatherlink.com 1.10,2013-01-02 06:48:00,
2013-01-02 02:03:00,22.3,15.0,29.96,NW,304,12.0,17.0,72,0.00,,,0.00,weatherlink.com 1.10,2013-01-02 07:03:00,
2013-01-02 02:18:00,22.1,15.0,29.96,WNW,289,9.0,15.0,73,0.00,,,0.00,weatherlink.com 1.10,2013-01-02 07:18:00,
2013-01-02 02:33:00,22.1,15.0,29.97,WNW,300,9.0,15.0,73,0.00,,,0.00,weatherlink.com 1.10,2013-01-02 07:33:00,
2013-01-02 02:48:00,22.3,15.0,29.97,West,279,8.0,14.0,74,0.00,,,0.00,weatherlink.com 1.10,2013-01-02 07:48:00,
2013-01-02 03:03:00,22.6,15.0,29.97,WNW,289,8.0,12.0,73,0.00,,,0.00,weatherlink.com 1.10,2013-01-02 08:03:00,
2013-01-02 03:18:00,22.8,16.0,29.97,WNW,283,5.0,7.0,74,0.00,,,0.00,weatherlink.com 1.10,2013-01-02 08:18:00,
2013-01-02 03:33:00,22.9,16.0,29.97,West,268,3.0,9.0,76,0.00,,,0.00,weatherlink.com 1.10,2013-01-02 08:33:00,
2013-01-02 03:48:00,23.6,18.0,29.97,NW,304,9.0,14.0,79,0.00,,,0.00,weatherlink.com 1.10,2013-01-02 08:48:00,
2013-01-02 04:03:00,24.1,19.0,29.97,WNW,297,8.0,16.0,80,0.00,,,0.00,weatherlink.com 1.10,2013-01-02 09:03:00,
2013-01-02 04:18:00,24.0,19.0,29.97,NW,309,14.0,14.0,82,0.00,,,0.00,weatherlink.com 1.10,2013-01-02 09:18:00,
2013-01-02 04:33:00,24.1,19.0,29.97,NW,314,7.0,17.0,81,0.00,,,0.00,weatherlink.com 1.10,2013-01-02 09:33:00,
2013-01-02 04:48:00,24.1,19.0,29.97,NW,313,14.0,15.0,79,0.00,,,0.00,weatherlink.com 1.10,2013-01-02 09:48:00,
2013-01-02 05:03:00,24.2,18.0,29.97,NNW,333,6.0,13.0,77,0.00,,,0.00,weatherlink.com 1.10,2013-01-02 10:03:00,
2013-01-02 05:18:00,24.5,18.0,29.98,NW,308,6.0,12.0,77,0.00,,,0.00,weatherlink.com 1.10,2013-01-02 10:18:00,
2013-01-02 05:33:00,24.8,19.0,29.98,WNW,283,9.0,12.0,78,0.00,,,0.00,weatherlink.com 1.10,2013-01-02 10:33:00,
2013-01-02 05:48:00,24.8,19.0,29.98,WNW,291,6.0,12.0,77,0.00,,,0.00,weatherlink.com 1.10,2013-01-02 10:48:00,
2013-01-02 06:03:00,24.9,20.0,29.99,NW,317,8.0,12.0,82,0.00,,,0.00,weatherlink.com 1.10,2013-01-02 11:03:00,
2013-01-02 06:18:00,25.0,21.0,29.99,WNW,301,6.0,14.0,83,0.00,,,0.00,weatherlink.com 1.10,2013-01-02 11:18:00,
2013-01-02 06:33:00,25.2,21.0,29.99,NW,321,14.0,17.0,83,0.00,,,0.00,weatherlink.com 1.10,2013-01-02 11:33:00,
2013-01-02 06:48:00,25.3,20.0,30.00,NNW,329,8.0,16.0,80,0.00,,,0.00,weatherlink.com 1.10,2013-01-02 11:48:00,
2013-01-02 07:03:00,25.3,19.0,30.00,WNW,296,7.0,14.0,76,0.00,,,0.00,weatherlink.com 1.10,2013-01-02 12:03:00,
2013-01-02 07:18:00,25.3,18.0,30.00,NW,308,7.0,15.0,74,0.00,,,0.00,weatherlink.com 1.10,2013-01-02 12:18:00,
2013-01-02 07:33:00,25.1,19.0,30.01,West,277,8.0,12.0,78,0.00,,,0.00,weatherlink.com 1.10,2013-01-02 12:33:00,
2013-01-02 07:48:00,25.2,18.0,30.01,NNW,338,5.0,13.0,75,0.00,,,0.00,weatherlink.com 1.10,2013-01-02 12:48:00,
2013-01-02 08:03:00,25.3,20.0,30.02,NNW,336,7.0,14.0,81,0.00,,,0.00,weatherlink.com 1.10,2013-01-02 13:03:00,
2013-01-02 08:18:00,25.4,20.0,30.02,NW,308,9.0,16.0,80,0.00,,,0.00,weatherlink.com 1.10,2013-01-02 13:18:00,
2013-01-02 08:33:00,25.4,19.0,30.02,NW,308,9.0,14.0,78,0.00,,,0.00,weatherlink.com 1.10,2013-01-02 13:33:00,
2013-01-02 08:49:00,25.6,19.0,30.02,NW,313,5.0,9.0,76,0.00,,,0.00,weatherlink.com 1.10,2013-01-02 13:49:00,
2013-01-02 09:04:00,25.8,19.0,30.03,WNW,295,5.0,10.0,76,0.00,,,0.00,weatherlink.com 1.10,2013-01-02 14:04:00,
2013-01-02 09:19:00,25.9,20.0,30.03,NNW,341,4.0,5.0,77,0.00,,,0.00,weatherlink.com 1.10,2013-01-02 14:19:00,
2013-01-02 09:34:00,26.0,19.0,30.04,NW,312,3.0,7.0,76,0.00,,,0.00,weatherlink.com 1.10,2013-01-02 14:34:00,
2013-01-02 09:49:00,26.1,20.0,30.04,WNW,283,5.0,8.0,76,0.00,,,0.00,weatherlink.com 1.10,2013-01-02 14:49:00,
2013-01-02 10:04:00,26.0,20.0,30.05,West,269,3.0,6.0,78,0.00,,,0.00,weatherlink.com 1.10,2013-01-02 15:04:00,
2013-01-02 10:19:00,26.1,20.0,30.05,WNW,294,2.0,6.0,77,0.00,,,0.00,weatherlink.com 1.10,2013-01-02 15:19:00,
2013-01-02 10:34:00,26.1,20.0,30.05,West,261,6.0,9.0,78,0.00,,,0.00,weatherlink.com 1.10,2013-01-02 15:34:00,
2013-01-02 10:49:00,26.3,20.0,30.06,WNW,300,7.0,7.0,77,0.00,,,0.00,weatherlink.com 1.10,2013-01-02 15:49:00,
2013-01-02 11:04:00,26.3,20.0,30.06,West,278,4.0,9.0,76,0.00,,,0.00,weatherlink.com 1.10,2013-01-02 16:04:00,
2013-01-02 11:19:00,26.4,20.0,30.06,West,265,2.0,7.0,76,0.00,,,0.00,weatherlink.com 1.10,2013-01-02 16:19:00,
2013-01-02 11:34:00,26.5,20.0,30.06,West,280,4.0,7.0,75,0.00,,,0.00,weatherlink.com 1.10,2013-01-02 16:34:00,
2013-01-02 11:49:00,26.6,20.0,30.06,West,271,4.0,6.0,76,0.00,,,0.00,weatherlink.com 1.10,2013-01-02 16:49:00,
2013-01-02 12:04:00,26.5,21.0,30.06,WSW,248,4.0,6.0,79,0.00,,,0.00,weatherlink.com 1.10,2013-01-02 17:04:00,
2013-01-02 12:19:00,26.6,21.0,30.06,WSW,248,3.0,6.0,78,0.00,,,0.00,weatherlink.com 1.10,2013-01-02 17:19:00,
2013-01-02 12:34:00,26.7,21.0,30.05,WSW,242,6.0,8.0,78,0.00,,,0.00,weatherlink.com 1.10,2013-01-02 17:34:00,
2013-01-02 12:49:00,26.6,21.0,30.05,SW,236,5.0,8.0,80,0.00,,,0.00,weatherlink.com 1.10,2013-01-02 17:49:00,
2013-01-02 13:04:00,26.1,22.0,30.05,SSW,213,7.0,9.0,83,0.00,,,0.00,weatherlink.com 1.10,2013-01-02 18:04:00,
2013-01-02 13:19:00,26.1,22.0,30.04,SW,215,4.0,8.0,84,0.00,,,0.00,weatherlink.com 1.10,2013-01-02 18:19:00,
2013-01-02 13:34:00,26.1,22.0,30.04,SSW,213,6.0,8.0,84,0.00,,,0.00,weatherlink.com 1.10,2013-01-02 18:34:00,
2013-01-02 13:49:00,26.2,22.0,30.04,SSW,210,4.0,8.0,85,0.00,,,0.00,weatherlink.com 1.10,2013-01-02 18:49:00,
2013-01-02 14:04:00,26.2,22.0,30.04,SSW,209,5.0,8.0,85,0.00,,,0.00,weatherlink.com 1.10,2013-01-02 19:04:00,
2013-01-02 14:19:00,26.3,22.0,30.04,SW,221,5.0,8.0,84,0.00,,,0.00,weatherlink.com 1.10,2013-01-02 19:19:00,
2013-01-02 14:34:00,26.3,22.0,30.04,SSW,210,5.0,8.0,84,0.00,,,0.00,weatherlink.com 1.10,2013-01-02 19:34:00,
2013-01-02 14:49:00,26.3,22.0,30.04,SSW,207,7.0,9.0,84,0.00,,,0.00,weatherlink.com 1.10,2013-01-02 19:49:00,
2013-01-02 15:04:00,26.4,22.0,30.04,SW,227,8.0,11.0,83,0.00,,,0.00,weatherlink.com 1.10,2013-01-02 20:04:00,
2013-01-02 15:19:00,26.3,22.0,30.05,SSW,211,8.0,12.0,83,0.00,,,0.00,weatherlink.com 1.10,2013-01-02 20:19:00,
2013-01-02 15:34:00,26.3,22.0,30.05,SW,217,8.0,11.0,83,0.00,,,0.00,weatherlink.com 1.10,2013-01-02 20:34:00,
2013-01-02 15:49:00,26.3,22.0,30.05,SSW,213,7.0,9.0,84,0.00,,,0.00,weatherlink.com 1.10,2013-01-02 20:49:00,
2013-01-02 16:04:00,26.4,22.0,30.05,SW,234,7.0,14.0,83,0.00,,,0.00,weatherlink.com 1.10,2013-01-02 21:04:00,
2013-01-02 16:19:00,26.2,22.0,30.05,SSW,209,7.0,11.0,84,0.00,,,0.00,weatherlink.com 1.10,2013-01-02 21:19:00,
2013-01-02 16:34:00,26.0,22.0,30.05,SSW,198,9.0,18.0,85,0.00,,,0.00,weatherlink.com 1.10,2013-01-02 21:34:00,
2013-01-02 16:49:00,25.6,22.0,30.05,SSW,206,7.0,13.0,86,0.00,,,0.00,weatherlink.com 1.10,2013-01-02 21:49:00,
2013-01-02 17:04:00,25.4,22.0,30.05,SSW,200,11.0,14.0,86,0.00,,,0.00,weatherlink.com 1.10,2013-01-02 22:04:00,
2013-01-02 17:19:00,25.2,22.0,30.06,SSW,209,16.0,18.0,86,0.00,,,0.00,weatherlink.com 1.10,2013-01-02 22:19:00,
2013-01-02 17:34:00,25.1,21.0,30.06,SSW,201,10.0,15.0,85,0.00,,,0.00,weatherlink.com 1.10,2013-01-02 22:34:00,
2013-01-02 17:49:00,25.0,21.0,30.06,SSW,197,7.0,14.0,86,0.00,,,0.00,weatherlink.com 1.10,2013-01-02 22:49:00,
2013-01-02 18:04:00,25.0,21.0,30.07,SSW,199,7.0,14.0,86,0.00,,,0.00,weatherlink.com 1.10,2013-01-02 23:04:00,
2013-01-02 18:19:00,24.9,21.0,30.07,SW,217,5.0,12.0,85,0.00,,,0.00,weatherlink.com 1.10,2013-01-02 23:19:00,
2013-01-02 18:34:00,24.9,21.0,30.07,SSW,212,7.0,14.0,85,0.00,,,0.00,weatherlink.com 1.10,2013-01-02 23:34:00,
2013-01-02 18:49:00,24.9,21.0,30.07,South,190,9.0,13.0,84,0.00,,,0.00,weatherlink.com 1.10,2013-01-02 23:49:00,
2013-01-02 19:04:00,24.9,20.0,30.07,SSW,195,9.0,15.0,83,0.00,,,0.00,weatherlink.com 1.10,2013-01-03 00:04:00,
2013-01-02 19:19:00,24.8,20.0,30.07,SSW,209,7.0,13.0,83,0.00,,,0.00,weatherlink.com 1.10,2013-01-03 00:19:00,
2013-01-02 19:49:00,24.6,20.0,30.07,South,188,13.0,13.0,81,0.00,,,0.00,weatherlink.com 1.10,2013-01-03 00:49:00,
2013-01-02 20:04:00,24.7,19.0,30.07,South,190,9.0,15.0,79,0.00,,,0.00,weatherlink.com 1.10,2013-01-03 01:04:00,
2013-01-02 20:19:00,24.7,19.0,30.07,SSW,203,7.0,13.0,79,0.00,,,0.00,weatherlink.com 1.10,2013-01-03 01:19:00,
2013-01-02 20:34:00,24.7,19.0,30.06,SSW,192,9.0,11.0,79,0.00,,,0.00,weatherlink.com 1.10,2013-01-03 01:34:00,
2013-01-02 20:49:00,24.7,20.0,30.06,SSW,200,12.0,15.0,81,0.00,,,0.00,weatherlink.com 1.10,2013-01-03 01:49:00,
2013-01-02 21:04:00,24.5,20.0,30.05,SSW,196,13.0,15.0,82,0.00,,,0.00,weatherlink.com 1.10,2013-01-03 02:04:00,
2013-01-02 21:19:00,24.5,20.0,30.05,South,189,12.0,17.0,82,0.00,,,0.00,weatherlink.com 1.10,2013-01-03 02:19:00,
2013-01-02 21:34:00,24.4,20.0,30.05,SSW,197,9.0,18.0,83,0.00,,,0.00,weatherlink.com 1.10,2013-01-03 02:34:00,
2013-01-02 21:49:00,24.4,20.0,30.04,SSW,197,11.0,18.0,84,0.00,,,0.00,weatherlink.com 1.10,2013-01-03 02:49:00,
2013-01-02 22:04:00,24.4,20.0,30.04,SSW,192,9.0,17.0,84,0.00,,,0.00,weatherlink.com 1.10,2013-01-03 03:04:00,
2013-01-02 22:19:00,24.5,20.0,30.04,South,186,11.0,16.0,84,0.00,,,0.00,weatherlink.com 1.10,2013-01-03 03:19:00,
2013-01-02 22:49:00,24.4,21.0,30.04,SSW,193,9.0,13.0,85,0.00,,,0.00,weatherlink.com 1.10,2013-01-03 03:49:00,
2013-01-02 23:05:00,24.4,21.0,30.03,SSW,198,8.0,15.0,86,0.00,,,0.00,weatherlink.com 1.10,2013-01-03 04:05:00,
2013-01-02 23:19:00,24.4,21.0,30.03,SSW,194,7.0,15.0,87,0.00,,,0.00,weatherlink.com 1.10,2013-01-03 04:19:00,
2013-01-02 23:34:00,24.4,21.0,30.03,SSW,196,7.0,12.0,88,0.00,,,0.00,weatherlink.com 1.10,2013-01-03 04:34:00,
2013-01-02 23:49:00,24.5,22.0,30.02,South,180,7.0,12.0,88,0.00,,,0.00,weatherlink.com 1.10,2013-01-03 04:49:00,